Location: Barrialito
(10.3588°N, 66.9747°W)
Time: 16:08:11
(UTC+00:00)

Cosmos 1862 Rocket - Pass Details

Date: 07 July 2022
Orbit: 603 x 633 km, 82.5° (Epoch: 13 August)

Event Time Altitude Azimuth Distance (km) Brightness Sun altitude
Rises 08:04:06 0° 14° (NNE) 2,845 7.6 -28.7°
Reaches altitude 10° 08:06:34 10° 26° (NNE) 1,945 6.8 -28.2°
Maximum altitude 08:10:14 27° 85° (E) 1,166 5.5 -27.4°
Enters shadow 08:13:53 10° 143° (SE) 1,949 6.1 -26.7°
